ROMMA est une association bénévole à but non lucratif. Votre soutien est indispensable : ADHERER à ROMMA ou FAIRE un DON

Chambon - (38, Isère)

Oisans (2460 m)   Longitude: 06° 10' 42" E   Latitude: 45° 01' 32" N Station partenaire n°803
 

Détail journalier du     <<     >>

Température Humidité Vent Dir Rafale Dir. rafale Neige 1 Neige 2
Heure (°C) (%) (km/h) (km/h) (cm) (cm)
01:00 -2.2783N12N069
02:00 -2.1763NO10NO069
03:00 -2.0752S10NO069
04:00 -2.8822S8NO069
05:00 -2.7802SSO8SSO068
06:00 -2.8821NE6SSO068
07:00 -2.8832NE7SO068
08:00 -2.8812SO6SO068
09:00 -2.4783SO6SO068
10:00 0.3661SE5SE067
11:00 -0.2703OSO8OSO067
12:00 -0.2693NNE8NNE067
13:00 -1.3765N13N068
14:00 -0.7745N12N067
15:00 -2.2819N18NNE068
16:00 -2.6849N18N068
17:00 -2.5806N18N068
18:00 -2.7825N10N068
19:00 -2.2785N9N067
20:00 -2.4783N7NE067
21:00 -2.2765N17N067
22:00 -2.5775OSO16NNO067
23:00 -3.5855NNE12NNE067
minuit -3.8843NNE11NNE067

Graphique du 20-11-2019

 

Serveur OMMA